Zurück zum Katalog

COSMOS 1257

AktivNavigationLEO
NORAD 12327·PAYLOAD·🇷🇺 Russia

Gestartet Mar 6, 1981 von Plesetsk Cosmodrome

Loading…

Nächste Überflüge (nächste 24 Stunden)

TLE

AktuellSource: Space-Track

Epoche: Sep 14, 2026, 14:37 UTC

1 12327U 81022H   26257.60950507 -.00000007  00000-0  62373-4 0  9995
2 12327  74.0290 300.9653 0006582 168.7941 359.8779 12.47858730 73825

Verfolge COSMOS 1257 in Echtzeit mit AllMySat

Download on the App Store